Flag for Norway Weather past 2 weeks in Vadsø, Norway

Now
54 °F

Partly sunny.


Feels Like: 47 °F
Forecast: 46 / 58 °F
Wind: 25 mph from Northeast

Location: Vadso

Current Time: Jul 29, 2015 at 2:30:29 PM

Latest Report: Jul 29, 2015 at 1:50 PM


Visibility: N/A

Pressure: 29.68 "Hg

Humidity: 82%

Dew point: 48 °F

Location of VadsøLocation

Historic Weather in Vadsø — Graph

°F

Vadsø temperature yesterday

Maximum temperature yesterday: 61 °F (at 3:50 PM)
Minimum temperature yesterday: 50 °F (at 12:50 AM)
Average temperature yesterday: 55 °F

Past Weeks' High & Low Weather Summary

 TemperatureHumidityPressure
High66 °F (Jul 22, 5:50 PM)100% (Jul 24, 9:50 PM)30.07 "Hg (Jul 24, 9:50 PM)
Low36 °F (Jul 16, 12:20 AM)40% (Jul 22, 5:50 PM)29.59 "Hg (Jul 19, 12:20 PM)
Average50 °F81%29.79 "Hg
* Reported Jul 14 12:50 PM — Jul 29 12:50 PM, Vadsø, Weather by CustomWeather, © 2015

Note: Actual official high and low records may vary slightly from our data, if they occured in-between our weather recording intervals... More about our weather records

Advertising

Vadsø weather history for previous 24 hours

 ConditionsComfort  
Time TempWeatherWind HumidityBarometerVisibility
12:50 PM
Wed, Jul 29
57 °FPartly sunny.23 mph77%29.71 "HgN/A
11:50 AM57 °FPartly sunny.23 mph77%29.71 "HgN/A
10:50 AM55 °FPartly sunny.23 mph82%29.71 "HgN/A
9:50 AM55 °FPartly sunny.23 mph88%29.71 "HgN/A
8:50 AM55 °FPartly sunny.21 mph88%29.74 "HgN/A
7:50 AM54 °FPartly sunny.14 mph94%29.74 "HgN/A
6:50 AM54 °FSprinkles. Partly sunny.12 mph100%29.74 "HgN/A
5:50 AM52 °FBroken clouds.14 mph100%29.77 "HgN/A
4:50 AM52 °FDense fog.12 mph100%29.77 "Hg1 mi
12:50 AM50 °FPassing clouds.8 mph94%29.77 "HgN/A
10:50 PM
Tue, Jul 28
52 °FClear.13 mph94%29.77 "Hg10 mi
9:50 PM54 °FSunny.13 mph94%29.77 "Hg10 mi
8:50 PM55 °FSunny.12 mph88%29.77 "Hg10 mi
7:50 PM59 °FSunny.12 mph82%29.77 "Hg10 mi
6:50 PM59 °FSunny.12 mph82%29.77 "Hg10 mi
5:50 PM61 °FSunny.8 mph77%29.77 "Hg10 mi
4:50 PM61 °FSunny.9 mph77%29.77 "Hg10 mi
3:50 PM61 °FPassing clouds.9 mph72%29.77 "HgN/A
2:50 PM57 °FPartly sunny.12 mph82%29.80 "HgN/A
Weather by CustomWeather, © 2015

See weather overviewHow to use our weather pages